GROUP/SHIP,CRUISE_DESIGNATION,JD_GMT,DATE_DDMMYYYY,TIME_HH:MM:SS,LAT_DEC_DEGREE,LONG_DEC_DEGREE,xCO2W_PPM,xCO2A_PPM,PRES_EQUIL_hPa,PRES_SEALEVEL_hPa,EqTEMP_C,SST(TSG)_C,SAL(TSG)_PERMIL,WATER_FLOW_L/MIN,GAS_FLOW_IR_ML/MIN,TEMP_IR_C,PRES_IR_hPa,SHIP_HEADING_TRUE_DEGREE,SHIP_SPEED_KNOT,WIND_DIR_REL_DEGREE,WIND_SPEED_REL_M/S,fCO2W@SST_uATM,QC_FLAG_WATER,fCO2A_uATM,QC_FLAG_AIR,dfCO2_uATM,FLUORO_uG/L,WIND_SPEED_TRUE_M/S,WIND_DIR_TRUE_DEGREE,AIR_TEMP_C
AOML_Brown,RB200705,192.09,11072007,2:09:43,29.117,-94.803,-999.99,-999.99,1014.57,1015.04,29,29.04,29.58,8.62,1.39,33.89,1014.57,236.7,11.7,340.2,10.78,-999.99,4,-999.99,4,-999.99,6.62,5.67,192.11,29.06
AOML_Brown,RB200705,192.093,11072007,2:14:23,29.109,-94.817,-999.99,-999.99,1014.56,1015.2,28.98,28.97,29.73,9.02,1.4,33.91,1014.56,235.5,11.4,339.6,10.28,-999.99,4,-999.99,4,-999.99,7.36,5.37,189.64,28.96
AOML_Brown,RB200705,192.096,11072007,2:18:43,29.101,-94.83,-999.99,-999.99,1014.63,1015.26,28.87,28.94,30.73,8.82,1.39,33.92,1014.63,236.1,11.3,340.8,9.29,-999.99,4,-999.99,4,-999.99,8.41,4.33,187.94,28.98
AOML_Brown,RB200705,192.099,11072007,2:23:03,29.094,-94.843,-999.99,-999.99,1014.61,1015.33,28.52,28.54,31.3,8.69,1.39,33.92,1014.61,235.8,11.3,342.8,9.69,-999.99,4,-999.99,4,-999.99,8.49,4.5,195.12,28.98
AOML_Brown,RB200705,192.111,11072007,2:39:43,29.065,-94.892,-999.99,-999.99,1014.77,1015.52,28.13,28.12,31.99,8.61,1.4,33.92,1014.77,235.7,11.2,336.2,9.89,-999.99,4,-999.99,4,-999.99,8.44,5.31,182.95,28.98
AOML_Brown,RB200705,192.114,11072007,2:44:03,29.057,-94.904,-999.99,-999.99,1014.88,1015.58,28.06,27.98,31.95,9,1.39,33.9,1014.88,236.1,11.1,341,9.19,-999.99,4,-999.99,4,-999.99,6.19,4.33,186.04,28.93
AOML_Brown,RB200705,192.117,11072007,2:48:43,29.049,-94.918,-999.99,-999.99,1014.83,1015.6,28.04,28,32.08,8.62,1.39,33.86,1014.83,236.4,11.1,339.3,9.59,-999.99,4,-999.99,4,-999.99,5.47,4.82,186.97,29.01
AOML_Brown,RB200705,192.12,11072007,2:53:03,29.041,-94.931,-999.99,-999.99,1014.84,1015.53,28.1,28.02,31.95,8.64,1.39,33.84,1014.84,235.9,11.1,339.4,9.19,-999.99,4,-999.99,4,-999.99,5.01,4.48,184.41,28.91
AOML_Brown,RB200705,192.132,11072007,3:09:43,29.012,-94.979,-999.99,386.63,1015.12,1015.77,28.43,28.34,31.26,8.51,1.39,33.93,1015.12,235.4,11.1,340.7,9.19,-999.99,4,371.57,2,-999.99,6.11,4.28,188.02,29.01
AOML_Brown,RB200705,192.135,11072007,3:14:23,29.004,-94.993,-999.99,386.63,1015.19,1015.88,28.9,28.85,30.37,8.43,1.39,33.94,1015.19,236.7,8.9,343.5,8.49,-999.99,4,371.57,2,-999.99,5.88,4.21,195.78,28.86
AOML_Brown,RB200705,192.138,11072007,3:18:43,29,-95.001,-999.99,386.63,1015.26,1016,29.08,29.12,30.25,8.48,1.39,33.93,1015.26,232,5.1,341.4,7.19,-999.99,4,371.57,2,-999.99,5.13,5.35,181.24,28.86
AOML_Brown,RB200705,192.141,11072007,3:23:03,28.997,-95.001,-999.99,386.63,1015.39,1016.14,29.12,29.11,30.21,8.67,1.39,33.93,1015.39,222.9,0.4,313.1,5.69,-999.99,4,371.57,2,-999.99,4.96,5.58,193.5,28.91
AOML_Brown,RB200705,192.153,11072007,3:39:43,28.998,-95,-999.99,386.63,1015.64,1016.52,29.13,29.11,30.16,8.72,1.4,33.98,1015.64,263.9,0.1,348.3,5,-999.99,4,371.57,2,-999.99,4.77,4.96,198.22,28.88
AOML_Brown,RB200705,192.156,11072007,3:44:03,28.998,-95,-999.99,386.63,1015.64,1016.54,29.12,29.11,30.16,8.69,1.39,33.99,1015.64,267.1,0.2,342.7,4.5,-999.99,4,371.57,2,-999.99,4.75,4.5,190.73,28.88
AOML_Brown,RB200705,192.159,11072007,3:48:43,28.998,-95,-999.99,386.63,1015.76,1016.58,29.13,29.1,30.15,8.62,1.39,33.99,1015.76,267,0.2,345.4,5.09,-999.99,4,371.57,2,-999.99,4.72,5.06,193.82,28.88
AOML_Brown,RB200705,192.162,11072007,3:53:03,28.998,-95,-999.99,386.63,1015.82,1016.68,29.13,29.1,30.15,8.65,1.39,33.98,1015.82,334.6,0.1,347.3,5.29,-999.99,4,371.57,2,-999.99,4.7,5.37,197.23,28.83
AOML_Brown,RB200705,192.173,11072007,4:09:43,28.998,-95,-999.99,385.12,1015.84,1016.76,29.17,29.1,30.11,10.66,1.39,34,1015.84,337.5,0.3,339.3,5,-999.99,4,370.32,2,-999.99,4.6,5.09,187.92,28.78
AOML_Brown,RB200705,192.177,11072007,4:14:23,28.998,-95,-999.99,385.12,1015.92,1016.73,29.18,29.1,30.11,8.18,171.03,33.99,1015.92,122.5,0.2,344.8,5.39,-999.99,4,370.32,2,-999.99,4.59,5.33,194.65,28.78
AOML_Brown,RB200705,192.18,11072007,4:18:43,28.998,-95,364.72,385.12,1016.01,1016.79,29.12,29.09,30.1,8.5,261.77,33.97,1016.01,149.2,0.2,337.4,5,349.91,2,370.32,2,-20.41,4.96,4.92,187.05,28.83
AOML_Brown,RB200705,192.183,11072007,4:23:03,28.998,-95,364.28,385.12,1016.02,1016.9,29.14,29.09,30.08,8.48,191.91,33.94,1016.02,135.3,0.2,336,5.19,349.25,2,370.32,2,-21.06,4.61,5.12,182.88,28.73
AOML_Brown,RB200705,192.194,11072007,4:39:43,28.989,-94.998,361.25,385.12,1015.94,1016.84,29.19,29.16,29.89,8.27,173.37,33.89,1015.94,180.1,5.7,359.5,8.19,346.52,2,370.32,2,-23.79,4.38,5.28,189.93,28.83
AOML_Brown,RB200705,192.197,11072007,4:44:03,28.981,-94.999,360.49,385.12,1015.96,1016.76,29.23,29.19,29.75,8.13,149.65,33.9,1015.96,182.3,6.9,0.4,8.79,345.7,2,370.32,2,-24.62,4.14,5.21,190.92,28.78
AOML_Brown,RB200705,192.2,11072007,4:48:43,28.971,-94.999,358.51,385.12,1015.98,1016.76,29.22,29.21,29.61,8.34,154.55,33.9,1015.98,187.5,7.5,1.8,8.99,344.18,2,370.32,2,-26.14,3.85,5.17,198.44,28.73
AOML_Brown,RB200705,192.204,11072007,4:53:03,28.962,-95.001,355.68,385.12,1015.99,1016.77,29.23,29.2,29.51,8.37,183.43,33.92,1015.99,189.7,8,0.4,8.79,341.18,2,370.32,2,-29.14,3.54,4.64,195.87,28.76
AOML_Brown,RB200705,192.215,11072007,5:09:43,28.924,-95.005,348.29,384.17,1015.76,1016.51,29.15,29.13,29.07,8.17,222.47,33.98,1015.76,178.1,8.3,359.6,9.69,334.2,2,369.35,2,-35.15,3.17,5.43,184.51,28.78
AOML_Brown,RB200705,192.218,11072007,5:14:23,28.913,-95.004,346.7,384.17,1015.85,1016.59,29.1,29.08,28.97,8.15,227.26,33.98,1015.85,161.1,8.6,11.4,9.39,332.64,2,369.35,2,-36.72,3.19,5.27,193.72,28.86
AOML_Brown,RB200705,192.221,11072007,5:18:43,28.904,-94.999,345.63,384.17,1015.87,1016.61,29.1,29.07,28.94,8.13,232.44,33.95,1015.87,154.3,8.6,15.6,9.49,331.67,2,369.35,2,-37.69,3.2,5.54,192.35,28.81
AOML_Brown,RB200705,192.224,11072007,5:23:03,28.894,-94.994,345.15,384.17,1015.88,1016.66,29.07,29.05,28.96,8.17,241.67,33.92,1015.88,154.7,8.6,22.2,8.99,331.21,2,369.35,2,-38.14,3.11,5.49,204.59,28.78
AOML_Brown,RB200705,192.236,11072007,5:39:43,28.858,-94.975,339.28,384.17,1015.82,1016.61,29.1,29.05,28.6,8.02,255.38,33.88,1015.82,155.6,8.5,17.5,9.09,325.22,2,369.35,2,-44.13,3.01,5.29,195.9,28.83
AOML_Brown,RB200705,192.239,11072007,5:44:03,28.849,-94.97,337.51,384.17,1015.86,1016.6,29.12,29.07,28.53,8.06,242.28,33.9,1015.86,155.4,8.6,12.4,8.69,323.52,2,369.35,2,-45.83,2.99,4.65,188.84,28.76
AOML_Brown,RB200705,192.242,11072007,5:48:43,28.838,-94.964,335.39,384.17,1015.97,1016.68,29.09,29.04,28.63,8.03,244.76,33.92,1015.97,156,8.6,17.6,8.99,321.56,2,369.35,2,-47.8,3,5.22,196.62,28.71
AOML_Brown,RB200705,192.245,11072007,5:53:03,28.829,-94.96,335.78,384.17,1015.97,1016.74,28.89,28.84,30.07,7.93,245.85,33.93,1015.97,155.9,8.5,9.9,9.09,322.08,2,369.35,2,-47.27,2.97,5.04,185.87,28.78
AOML_Brown,RB200705,192.257,11072007,6:09:43,28.792,-94.943,334.12,383.94,1015.8,1016.6,28.89,28.85,29.04,8.08,256.16,34,1015.8,176.6,8.5,3.8,9.29,320.42,2,368.99,2,-48.56,3.04,5.02,191.57,28.73
AOML_Brown,RB200705,192.26,11072007,6:14:23,28.782,-94.946,332.02,383.94,1015.77,1016.51,28.98,28.94,28.58,8.18,247.14,34,1015.77,207.7,8.6,347.9,9.39,318.33,2,368.99,2,-50.66,3.04,5.2,182.69,28.66
AOML_Brown,RB200705,192.263,11072007,6:18:43,28.772,-94.951,328.47,383.94,1015.84,1016.55,29.14,29.09,28.04,7.99,245.79,33.97,1015.84,206.7,8.6,344.7,8.89,314.83,2,368.99,2,-54.15,3.05,4.82,175.19,28.73
AOML_Brown,RB200705,192.266,11072007,6:23:03,28.763,-94.957,324.76,383.94,1015.86,1016.64,29.21,29.17,27.9,8.01,247.44,33.93,1015.86,206.9,8.6,342.3,8.89,311.23,2,368.99,2,-57.75,3.09,4.89,171.6,28.71
AOML_Brown,RB200705,192.278,11072007,6:39:43,28.727,-94.977,317.13,383.94,1015.96,1016.7,29.24,29.19,28.11,7.9,245.54,33.91,1015.96,206.8,8.5,350,8.19,303.93,2,368.99,2,-65.06,3.11,3.95,182.91,28.68
AOML_Brown,RB200705,192.281,11072007,6:44:03,28.718,-94.982,316.86,383.94,1015.97,1016.75,29.22,29.17,28.17,8.06,241.31,33.9,1015.97,206.9,8.6,345.7,8.09,303.69,2,368.99,2,-65.3,3.08,3.99,174.2,28.73
AOML_Brown,RB200705,192.284,11072007,6:48:43,28.708,-94.988,316.29,383.94,1015.97,1016.8,29.25,29.2,28.12,7.81,243.9,33.88,1015.97,206.3,8.6,352.6,7.59,303.12,2,368.99,2,-65.87,3.07,3.27,186.85,28.71
AOML_Brown,RB200705,192.287,11072007,6:53:03,28.699,-94.993,316.23,383.94,1016.09,1016.85,29.26,29.26,28.19,7.95,245.09,33.87,1016.09,205.8,8.5,356.1,7.89,303.75,2,368.99,2,-65.24,3.03,3.5,195.83,28.66
AOML_Brown,RB200705,192.298,11072007,7:09:43,28.684,-95,316.05,383.83,1016.19,1017.08,29.34,29.32,28.22,8.09,246.51,33.97,1016.19,231.1,0.1,351.9,3.6,303.22,2,368.8,2,-65.57,2.96,3.57,180.64,28.73
AOML_Brown,RB200705,192.302,11072007,7:14:23,28.684,-95,315.59,383.83,1016.09,1017.1,29.35,29.33,28.21,8.09,244.61,33.99,1016.09,197.9,0.2,0.7,3.89,302.66,2,368.8,2,-66.14,2.94,3.83,192.84,28.61
AOML_Brown,RB200705,192.305,11072007,7:18:43,28.684,-95,315.7,383.83,1016.06,1016.97,29.35,29.33,28.19,7.97,245.17,33.98,1016.06,192.6,0.1,352.8,3.4,302.84,2,368.8,2,-65.96,2.92,3.29,184.44,28.56
AOML_Brown,RB200705,192.308,11072007,7:23:03,28.684,-95,315.78,383.83,1015.96,1016.97,29.36,29.35,28.23,8.07,245.64,33.97,1015.96,311.5,0.2,346.4,3.49,302.97,2,368.8,2,-65.82,2.93,3.56,182.45,28.63
AOML_Brown,RB200705,192.319,11072007,7:39:43,28.677,-95.001,315.84,383.83,1015.73,1016.66,29.31,29.31,28.47,7.85,242.22,33.91,1015.73,189.7,5.6,358.1,6.49,303.22,2,368.8,2,-65.57,2.94,3.61,189.56,28.66
AOML_Brown,RB200705,192.322,11072007,7:44:03,28.67,-95.003,317.71,383.83,1015.71,1016.56,29.37,29.32,28.54,7.55,240.05,33.91,1015.71,200.4,7.2,349.2,7.79,304.29,2,368.8,2,-64.5,2.94,4.14,183.63,28.63
AOML_Brown,RB200705,192.325,11072007,7:48:43,28.659,-95.008,320.77,383.83,1015.68,1016.49,29.46,29.48,28.8,7.97,244.15,33.91,1015.68,203.7,8.7,349.6,8.39,307.97,2,368.8,2,-60.83,2.84,4.12,181.51,28.71
AOML_Brown,RB200705,192.329,11072007,7:53:03,28.65,-95.013,324.11,383.83,1015.61,1016.44,29.49,29.49,28.8,7.63,243.96,33.9,1015.61,202.1,8.9,351,8.89,310.9,2,368.8,2,-57.9,2.73,4.47,184.78,28.68
AOML_Brown,RB200705,192.34,11072007,8:09:43,28.609,-95.014,328.61,383.85,1015.44,1016.22,29.57,29.57,29.5,7.83,242.21,33.93,1015.44,176.8,8.8,2.5,9.89,315.24,2,368.41,2,-53.17,2.53,5.22,184.24,28.71
AOML_Brown,RB200705,192.343,11072007,8:14:23,28.597,-95.013,329.57,383.85,1015.44,1016.2,29.61,29.61,29.59,7.97,243.76,33.93,1015.44,176.7,8.8,359.1,8.99,316.05,2,368.41,2,-52.36,2.46,4.51,178.59,28.66
AOML_Brown,RB200705,192.346,11072007,8:18:43,28.587,-95.012,329.59,383.85,1015.37,1016.2,29.61,29.62,29.54,7.91,242.41,33.92,1015.37,176.6,8.7,6,10.09,316.11,2,368.41,2,-52.3,2.44,5.66,187.6,28.61
AOML_Brown,RB200705,192.349,11072007,8:23:03,28.577,-95.012,329.16,383.85,1015.28,1016.13,29.6,29.59,29.49,7.67,247.5,33.91,1015.28,176.4,8.7,5.3,9.79,315.44,2,368.41,2,-52.97,2.48,5.38,189.69,28.68
AOML_Brown,RB200705,192.361,11072007,8:39:43,28.536,-95.009,332.57,383.85,1015.29,1016.01,29.51,29.5,30.22,7.87,246.5,33.94,1015.29,176.6,8.7,4.5,10.59,318.82,2,368.41,2,-49.59,2.33,6.15,186.92,28.63
AOML_Brown,RB200705,192.364,11072007,8:44:03,28.525,-95.008,336.33,383.85,1015.2,1016.06,29.45,29.44,30.79,7.69,246.72,33.95,1015.2,178.1,8.7,3.6,9.69,322.39,2,368.41,2,-46.02,2.29,5.3,193.5,28.56
AOML_Brown,RB200705,192.367,11072007,8:48:43,28.514,-95.008,340.36,383.85,1015.19,1015.96,29.45,29.45,31.14,7.88,251.56,33.93,1015.19,177.8,8.7,9.9,9.99,326.45,2,368.41,2,-41.96,2.17,5.69,199,28.51
AOML_Brown,RB200705,192.37,11072007,8:53:03,28.503,-95.007,342.68,383.85,1015.2,1015.9,29.39,29.34,31.47,7.86,254.26,33.92,1015.2,177.9,8.7,9.4,9.99,328.03,2,368.41,2,-40.38,2.13,5.66,197.91,28.63
AOML_Brown,RB200705,192.382,11072007,9:09:43,28.462,-95.006,358.99,383.94,1015.4,1016.13,28.95,28.81,32.33,7.88,252.48,33.94,1015.4,178.6,9,5.1,9.39,342.8,2,369.21,2,-26.4,1.93,4.81,189.49,28.43
AOML_Brown,RB200705,192.385,11072007,9:14:23,28.451,-95.006,367.74,383.94,1015.36,1016.15,28.98,28.94,32.33,7.89,252.04,33.94,1015.36,178,9,12.7,9.99,352.54,2,369.21,2,-16.66,2.04,5.53,202.14,28.51
AOML_Brown,RB200705,192.388,11072007,9:18:43,28.44,-95.005,372.18,383.94,1015.37,1016.13,28.91,28.88,32.31,7.82,254.45,33.93,1015.37,177.9,9,10.2,10.49,357.06,2,369.21,2,-12.14,2.01,6,197.16,28.41
AOML_Brown,RB200705,192.391,11072007,9:23:03,28.429,-95.005,373.68,383.94,1015.41,1016.16,28.88,28.84,32.34,7.89,255.6,33.92,1015.41,177.7,9,8.3,10.19,358.37,2,369.21,2,-10.84,1.96,5.86,193.55,28.43
AOML_Brown,RB200705,192.403,11072007,9:39:43,28.386,-95.003,383.4,383.94,1015.41,1016.07,28.85,28.82,32.61,7.91,252.66,33.94,1015.41,176.9,9.2,6.6,10.59,367.93,2,369.21,2,-1.27,2.01,5.83,190.37,28.38
AOML_Brown,RB200705,192.406,11072007,9:44:03,28.375,-95.002,388,383.94,1015.41,1016.17,28.85,28.8,32.61,7.83,254.82,33.93,1015.41,177.7,9.2,9.4,10.19,372.09,2,369.21,2,2.88,2.01,5.62,194.88,28.38
AOML_Brown,RB200705,192.409,11072007,9:48:43,28.363,-95.002,391.02,383.94,1015.48,1016.16,28.8,28.76,32.69,7.7,254.9,33.91,1015.48,177.1,9.2,5.8,10.49,375.19,2,369.21,2,5.99,2.01,5.94,199.31,28.43
AOML_Brown,RB200705,192.412,11072007,9:53:03,28.352,-95.001,393.91,383.94,1015.53,1016.21,28.83,28.77,32.76,7.81,257.06,33.9,1015.53,176,9.1,12,10.89,377.54,2,369.21,2,8.33,1.92,6.43,196.74,28.46
AOML_Brown,RB200705,192.423,11072007,10:09:43,28.333,-95.001,391.06,383.89,1015.73,1016.6,28.68,28.68,32.7,7.99,252.96,33.93,1015.73,266.5,0.2,343.3,5.09,375.91,2,369.37,2,6.54,1.86,5.1,174.73,28.48
AOML_Brown,RB200705,192.427,11072007,10:14:23,28.333,-95.001,391.13,383.89,1015.66,1016.59,28.73,28.68,32.7,7.81,255.72,33.94,1015.66,92.9,0.2,350.7,5.99,375.23,2,369.37,2,5.86,1.85,6.09,182.4,28.36
AOML_Brown,RB200705,192.43,11072007,10:18:43,28.333,-95.001,391.24,383.89,1015.65,1016.57,28.72,28.68,32.7,7.86,255.49,33.93,1015.65,53.5,0.1,356.9,5.89,375.5,2,369.37,2,6.13,1.84,5.98,185,28.38
AOML_Brown,RB200705,192.433,11072007,10:23:03,28.333,-95.001,391.29,383.89,1015.63,1016.48,28.73,28.67,32.7,7.89,257.71,33.92,1015.63,103.6,0.2,351,5.99,375.27,2,369.37,2,5.9,1.85,5.88,180.07,28.51
AOML_Brown,RB200705,192.444,11072007,10:39:43,28.332,-95.001,391.03,383.89,1015.88,1016.68,28.7,28.68,32.71,7.68,252.64,33.92,1015.88,312.9,0.2,9.8,5.59,375.59,2,369.37,2,6.22,1.83,5.64,189.84,28.38
AOML_Brown,RB200705,192.447,11072007,10:44:03,28.332,-95.001,391.54,383.89,1015.98,1016.74,28.7,28.68,32.71,7.92,255.73,33.92,1015.98,246.6,0.1,2.7,6.09,376.23,2,369.37,2,6.86,1.81,6.27,183.28,28.41
AOML_Brown,RB200705,192.45,11072007,10:48:43,28.332,-95.001,391.74,383.89,1016.04,1016.82,28.71,28.69,32.71,7.77,255.75,33.92,1016.04,31.2,0.1,10,5.29,376.3,2,369.37,2,6.93,1.81,5.34,189.91,28.38
AOML_Brown,RB200705,192.454,11072007,10:53:03,28.332,-95.001,391.86,383.89,1016.1,1016.9,28.73,28.69,32.71,7.83,256.06,33.91,1016.1,275.2,0.1,8.9,6.09,376.11,2,369.37,2,6.74,1.81,6.29,188.93,28.36
AOML_Brown,RB200705,192.465,11072007,11:09:43,28.327,-95.001,392.48,384.39,1016.21,1016.97,28.74,28.7,32.74,7.6,252.98,33.94,1016.21,181.1,5.3,0.2,8.69,376.82,2,370.01,2,6.81,1.84,6.01,180.28,28.41
AOML_Brown,RB200705,192.468,11072007,11:14:23,28.319,-95.001,393.01,384.39,1016.32,1017.05,28.72,28.69,32.73,7.42,251.26,33.94,1016.32,179,7,3,8.69,377.45,2,370.01,2,7.44,1.77,5.15,183.2,28.51
AOML_Brown,RB200705,192.471,11072007,11:18:43,28.31,-95.001,392.91,384.39,1016.34,1017.06,28.71,28.68,32.77,7.4,251.55,33.94,1016.34,177.9,7.6,9.7,9.29,377.41,2,370.01,2,7.4,1.75,5.36,187.54,28.46
AOML_Brown,RB200705,192.474,11072007,11:23:03,28.3,-95,394.5,384.39,1016.4,1017.09,28.74,28.76,32.78,7.58,252.75,33.92,1016.4,178.3,8.8,5.5,9.59,379.88,2,370.01,2,9.87,1.72,5.1,187.92,28.48
AOML_Brown,RB200705,192.486,11072007,11:39:43,28.258,-95,394.31,384.39,1016.56,1017.25,28.74,28.72,32.72,7.58,250.05,33.92,1016.56,180.8,9.1,5,10.59,378.96,2,370.01,2,8.94,1.61,5.98,188.96,28.51
AOML_Brown,RB200705,192.489,11072007,11:44:03,28.246,-95,393.81,384.39,1016.72,1017.28,28.75,28.71,32.7,7.4,248.49,33.93,1016.72,180.4,9.2,359.7,10.28,378.29,2,370.01,2,8.27,1.58,5.55,179.74,28.41
AOML_Brown,RB200705,192.492,11072007,11:48:43,28.235,-95,392.94,384.39,1016.73,1017.41,28.81,28.76,32.7,7.45,248.5,33.93,1016.73,180.5,9.2,357.1,9.89,377.35,2,370.01,2,7.34,1.57,5.17,173.71,28.41
AOML_Brown,RB200705,192.495,11072007,11:53:03,28.223,-95,391.65,384.39,1016.7,1017.48,28.83,28.81,32.7,7.74,247.15,33.91,1016.7,178.9,9.3,3.9,9.99,376.38,2,370.01,2,6.37,1.57,5.27,186.08,28.61
AOML_Brown,RB200705,192.507,11072007,12:09:43,28.181,-95,389.69,385.19,1016.81,1017.61,28.88,28.85,32.75,7.49,250.07,33.93,1016.81,179.9,9.3,355.2,8.59,374.49,2,370.94,2,3.55,1.51,3.84,169.46,28.56
AOML_Brown,RB200705,192.51,11072007,12:14:23,28.168,-95,389.96,385.19,1016.92,1017.63,28.86,28.83,32.77,7.54,251.96,33.93,1016.92,180.7,9.2,2.7,8.69,374.67,2,370.94,2,3.73,1.52,3.97,187.18,28.68
AOML_Brown,RB200705,192.513,11072007,12:18:43,28.157,-95,390.15,385.19,1016.87,1017.65,28.87,28.83,32.83,7.53,251.22,33.92,1016.87,179.7,9.1,358.5,8.59,374.71,2,370.94,2,3.76,1.5,3.85,176.63,28.58
AOML_Brown,RB200705,192.516,11072007,12:23:03,28.146,-95,390.69,385.19,1016.93,1017.68,28.84,28.83,32.88,7.49,250.48,33.9,1016.93,180.5,9.2,359.7,9.29,375.86,2,370.94,2,4.91,1.48,4.55,179.7,28.61
AOML_Brown,RB200705,192.528,11072007,12:39:43,28.103,-95,390.83,385.19,1017.11,1017.75,28.89,28.85,33.01,7.5,248.07,33.92,1017.11,180.4,9.4,0.6,9.19,375.44,2,370.94,2,4.5,1.42,4.4,177.91,28.58
AOML_Brown,RB200705,192.531,11072007,12:44:03,28.093,-95,391.81,385.19,1017.24,1017.9,28.92,28.89,33.02,7.49,247.84,33.93,1017.24,179.4,7.4,357.4,7.99,376.59,2,370.94,2,5.64,1.43,4.24,173.73,28.43
AOML_Brown,RB200705,192.534,11072007,12:48:43,28.086,-95,392.52,385.19,1017.34,1018.11,28.94,28.91,33.02,7.81,246.26,33.92,1017.34,176.2,3.1,2.3,5.19,377.33,2,370.94,2,6.38,1.44,3.55,181.29,28.66
AOML_Brown,RB200705,192.537,11072007,12:53:03,28.084,-95,392.91,385.19,1017.42,1018.2,28.95,28.92,33.02,7.59,247,33.91,1017.42,184.9,0.9,350.4,5,377.69,2,370.94,2,6.74,1.43,4.59,174.09,28.61
AOML_Brown,RB200705,192.548,11072007,13:09:43,28.083,-95,394.48,385.13,1017.48,1018.24,28.93,28.91,33.09,7.63,246.17,33.92,1017.48,172.2,0.1,340.4,4.69,379.44,2,371.08,2,8.36,1.39,4.64,173.72,28.58
AOML_Brown,RB200705,192.552,11072007,13:14:23,28.083,-95,394.66,385.13,1017.51,1018.35,28.92,28.9,33.04,7.69,247.82,33.92,1017.51,203.9,0.2,340.7,4.39,379.67,2,371.08,2,8.59,1.44,4.29,169.56,28.61
AOML_Brown,RB200705,192.555,11072007,13:18:43,28.083,-95,394.15,385.13,1017.55,1018.43,28.94,28.91,33.01,7.73,247.4,33.9,1017.55,174.8,0.2,5.6,4.59,378.94,2,371.08,2,7.86,1.43,4.59,184.78,28.58
AOML_Brown,RB200705,192.558,11072007,13:23:03,28.083,-95,393.72,385.13,1017.53,1018.49,28.91,28.9,33.01,7.58,247.95,33.88,1017.53,281.3,0.2,356,3.99,378.94,2,371.08,2,7.86,1.43,3.88,175.26,28.63
AOML_Brown,RB200705,192.569,11072007,13:39:43,28.051,-95,392.92,385.13,1017.63,1018.26,28.93,28.89,33,7.56,245.09,33.9,1017.63,180,8.7,358.8,9.09,377.73,2,371.08,2,6.65,1.43,4.61,178.23,28.56
AOML_Brown,RB200705,192.572,11072007,13:44:03,28.041,-95,393.67,385.13,1017.72,1018.38,28.94,28.9,32.97,7.62,245.28,33.92,1017.72,179.7,9,1.8,8.79,378.35,2,371.08,2,7.27,1.42,4.41,185.44,28.61
AOML_Brown,RB200705,192.575,11072007,13:48:43,28.029,-95,394.43,385.13,1017.79,1018.52,28.95,28.93,32.93,7.64,247.27,33.92,1017.79,179.9,9,1,8.69,379.5,2,371.08,2,8.42,1.44,4.06,183.75,28.58
AOML_Brown,RB200705,192.579,11072007,13:53:03,28.018,-95,394.77,385.13,1017.8,1018.59,29,28.96,32.91,7.46,245.89,33.9,1017.8,179.8,9,352.5,8.59,379.52,2,371.08,2,8.44,1.43,4,168.25,28.63
AOML_Brown,RB200705,192.59,11072007,14:09:43,27.976,-95,394.43,385.39,1017.79,1018.59,28.96,28.97,32.86,7.43,246.46,33.93,1017.79,180.1,9,357.3,8.99,379.83,2,371.32,2,8.52,1.44,4.36,175.26,28.63
AOML_Brown,RB200705,192.593,11072007,14:14:23,27.964,-95,394.17,385.39,1017.8,1018.55,29.02,28.96,32.88,7.4,244.89,33.92,1017.8,180,9.2,358.3,9.39,378.4,2,371.32,2,7.09,1.41,4.66,177.48,28.61
AOML_Brown,RB200705,192.596,11072007,14:18:43,27.953,-95,393.97,385.39,1017.8,1018.55,29.07,29.03,32.87,7.43,243.43,33.89,1017.8,179.4,9.7,359.9,9.29,378.61,2,371.32,2,7.3,1.41,4.35,181.66,28.68
AOML_Brown,RB200705,192.599,11072007,14:23:03,27.941,-95,394.1,385.39,1017.87,1018.55,29.09,29.06,32.86,7.46,243.72,33.86,1017.87,179.7,9.6,355.5,9.29,378.87,2,371.32,2,7.55,1.41,4.37,171.28,28.66
AOML_Brown,RB200705,192.611,11072007,14:39:43,27.896,-95,392.53,385.39,1017.97,1018.71,29.05,29.03,33.13,7.58,243.56,33.93,1017.97,180.1,9.6,0.4,8.89,377.65,2,371.32,2,6.33,1.4,3.95,181.34,28.71
AOML_Brown,RB200705,192.614,11072007,14:44:03,27.884,-95,393.65,385.39,1017.98,1018.72,29.06,29.04,33.34,7.4,244.98,33.95,1017.98,180.1,9.7,356.8,9.29,378.71,2,371.32,2,7.39,1.36,4.31,173.53,28.71
AOML_Brown,RB200705,192.617,11072007,14:48:43,27.871,-95,397.75,385.39,1017.95,1018.76,28.91,28.9,33.59,7.5,244.13,33.95,1017.95,180.2,9.8,2.3,7.89,382.89,2,371.32,2,11.58,1.34,3.01,188.24,28.78
AOML_Brown,RB200705,192.62,11072007,14:53:03,27.859,-95,402.36,385.39,1017.94,1018.74,28.86,28.83,33.64,7.51,244.81,33.93,1017.94,179.9,9.7,1.5,8.99,387.03,2,371.32,2,15.71,1.31,4,184.39,28.78
AOML_Brown,RB200705,192.632,11072007,15:09:43,27.833,-95,413.65,385.39,1018.14,1018.98,29.16,29.15,33.88,7.67,242.76,33.91,1018.14,348.8,0.3,354,4.5,398.1,2,371.33,2,26.77,1.3,4.65,172.47,28.66
AOML_Brown,RB200705,192.635,11072007,15:14:23,27.833,-95,415.71,385.39,1018.09,1018.96,29.18,29.17,33.88,7.63,242.87,33.93,1018.09,18.2,0.2,356.4,4.8,399.99,2,371.33,2,28.66,1.29,4.9,178.51,28.76
AOML_Brown,RB200705,192.638,11072007,15:18:43,27.833,-95,416.62,385.39,1018.12,1018.93,29.18,29.17,33.88,7.75,245.09,33.95,1018.12,333.5,0.3,351.4,4.19,400.79,2,371.33,2,29.46,1.28,4.3,172.07,28.83
AOML_Brown,RB200705,192.641,11072007,15:23:03,27.833,-95,417.02,385.39,1018.17,1018.96,29.17,29.17,33.88,7.73,243.72,33.96,1018.17,0.5,0.2,354.3,4.5,401.42,2,371.33,2,30.09,1.29,4.6,175.6,28.76
AOML_Brown,RB200705,192.653,11072007,15:39:43,27.833,-95,416.43,385.39,1018.13,1018.97,29.22,29.2,33.88,7.91,241.55,33.93,1018.13,170.5,0.2,353.6,4.5,400.46,2,371.33,2,29.13,1.28,4.45,173.28,28.76
AOML_Brown,RB200705,192.656,11072007,15:44:03,27.833,-95,417.16,385.39,1018.18,1018.99,29.23,29.2,33.88,7.45,247.3,33.91,1018.18,161.6,0.2,351.5,5.29,401.14,2,371.33,2,29.8,1.28,5.19,172.81,28.81
AOML_Brown,RB200705,192.659,11072007,15:48:43,27.833,-95,417.3,385.39,1018.29,1019.06,29.23,29.2,33.88,7.86,250.01,33.89,1018.29,299.1,0.1,352.6,4.69,401.29,2,371.33,2,29.96,1.27,4.72,173.19,28.76
AOML_Brown,RB200705,192.662,11072007,15:53:03,27.833,-95,417.42,385.39,1018.38,1019.14,29.24,29.21,33.89,7.96,249.42,33.89,1018.38,354.4,0.2,345.8,4.8,401.36,2,371.33,2,30.02,1.28,4.67,166.79,28.76
AOML_Brown,RB200705,192.673,11072007,16:09:43,27.833,-95,417.74,385.05,1018.52,1019.37,29.26,29.23,33.89,7.7,248.49,33.95,1018.52,161.6,0.2,342.8,4.19,401.81,2,371.09,2,30.73,1.28,4.2,163.67,28.81
AOML_Brown,RB200705,192.677,11072007,16:14:23,27.833,-95,418.43,385.05,1018.52,1019.39,29.3,29.27,33.88,8.02,248.47,33.96,1018.52,84.6,0.2,353.4,4.39,402.36,2,371.09,2,31.27,1.27,4.45,172.9,28.76
AOML_Brown,RB200705,192.68,11072007,16:18:43,27.833,-95,418.73,385.05,1018.6,1019.35,29.31,29.28,33.88,7.81,249.96,33.95,1018.6,75.4,0.2,355.2,3.89,402.73,2,371.09,2,31.65,1.27,3.91,176.7,28.76
AOML_Brown,RB200705,192.683,11072007,16:23:03,27.833,-95,418.89,385.05,1018.51,1019.35,29.32,29.28,33.88,7.65,250.11,33.93,1018.51,249,0.2,347.5,4.5,402.65,2,371.09,2,31.57,1.27,4.49,166.55,28.76
AOML_Brown,RB200705,192.694,11072007,16:39:43,27.805,-95,415.66,385.05,1018.48,1019.12,29.15,29.11,33.63,7.82,247.85,33.89,1018.48,180.1,9.3,353.6,8.69,399.66,2,371.09,2,28.57,1.29,3.95,169.25,28.88
AOML_Brown,RB200705,192.697,11072007,16:44:03,27.794,-95,414.89,385.05,1018.43,1019.18,29.1,29.08,33.61,7.75,246.45,33.91,1018.43,179.9,9.4,351.8,8.29,399.26,2,371.09,2,28.17,1.38,3.52,164.87,28.81